www.pogodaiklimat.ru

Погода и климат >> Архив погоды >> Норвегия >> Krakenes Fyr


ПОГОДА в Krakenes Fyr

  • Прогноз погоды в Krakenes Fyr
  • Монитор погоды в Krakenes Fyr
  • Климат города

АРХИВ ПОГОДЫ в Krakenes Fyr

Время (UTC), дата Ветер
(напр.,м/с)
 
Видим.   Явления Облачность Т
(С)
Тd
(С)
f
(%)
Тe
(С)
Тes
(С)
Комфортность P
(гПа)
Po
(гПа)
Тmin
(С)
Tmax
(С)
R
(мм)
R24
(мм)
S
(см)
22 13.11 Ю 13
{15}
н/о н/о +9.3 +9.2 99 +4 +4 1010.2 1005.4
23 13.11 Ю 13
{15}
н/о н/о +9.6 +9.5 99 +4 +4 1010.6 1005.8
00 14.11 Ю 13
{16}
н/о н/о +9.7 +9.6 99 +4 +4 1010.8 1006.0
01 14.11 Ю 15
{17}
н/о н/о +9.7 +9.6 99 +4 +4 1011.2 1006.4
02 14.11 Ю 15
{18}
н/о н/о +9.9 +9.6 98 +4 +4 1011.3 1006.5
03 14.11 Ю 14
{20}
н/о н/о +10.2 +5.0 70 +5 +5 1011.4 1006.6
04 14.11 Ю 13
{21}
н/о н/о +9.8 +6.7 81 +5 +5 1011.6 1006.8
05 14.11 Ю 16
{21}
н/о н/о +10.1 +5.3 72 +5 +5 1011.1 1006.3
06 14.11 Ю 14
{23}
н/о н/о +10.3 +3.6 63 +5 +5 1011.1 1006.3 +8.8 +10.4
07 14.11 Ю 13
{23}
н/о н/о +10.4 +3.0 60 +6 +6 1011.3 1006.5
08 14.11 Ю 16
{24}
н/о н/о +10.5 +3.6 62 +5 +5 1010.3 1005.5
09 14.11 Ю 16
{23}
н/о н/о +10.4 +3.5 62 +5 +5 1010.8 1006.0
10 14.11 Ю 14
{23}
н/о н/о +10.2 +3.9 65 +5 +5 1011.2 1006.4
11 14.11 Ю 18
{25}
н/о н/о +10.6 +3.9 63 +5 +5 1010.0 1005.2
12 14.11 Ю 16
{25}
н/о н/о +10.1 +5.5 73 +5 +5 1010.9 1006.1
13 14.11 Ю 17
{23}
н/о н/о +11.0 +4.9 66 +6 +6 1009.7 1004.9
14 14.11 Ю 19
{28}
н/о н/о +10.7 +6.5 75 +5 +5 1009.9 1005.1
15 14.11 Ю 16
{25}
н/о н/о +10.9 +6.9 76 +6 +6 1010.1 1005.3
16 14.11 Ю 17
{23}
н/о н/о +11.0 +7.1 77 +6 +6 1009.9 1005.1
17 14.11 Ю 16
{24}
н/о н/о +10.9 +7.6 80 +6 +6 1009.6 1004.8
18 14.11 Ю 16
{28}
н/о н/о +11.4 +5.5 67 +7 +7 1009.0 1004.2 +9.8 +11.4
19 14.11 Ю 12
{22}
н/о н/о +11.2 +6.8 74 +7 +7 1009.6 1004.8
20 14.11 Ю 14
{21}
н/о н/о +11.1 +7.8 80 +6 +6 1009.3 1004.5
21 14.11 Ю 15
{20}
н/о н/о +11.4 +7.7 78 +7 +7 1009.0 1004.2
22 14.11 Ю 14
{22}
н/о н/о +11.1 +9.0 87 +6 +6 1008.6 1003.8
23 14.11 Ю 17
{24}
н/о н/о +11.3 +9.7 90 +6 +6 1008.4 1003.6
00 15.11 Ю 20
{28}
н/о н/о +11.5 +10.4 93 +6 +6 1008.3 1003.5
01 15.11 Ю 19
{26}
н/о н/о +11.7 +10.6 93 +6 +6 1009.3 1004.5
02 15.11 Ю 18
{25}
н/о н/о +11.8 +10.9 94 +7 +7 1009.8 1005.0
03 15.11 Ю 13
{23}
н/о н/о +12.4 +10.5 88 +8 +8 1010.3 1005.5
04 15.11 Ю 17
{22}
н/о н/о +12.0 +11.1 94 +7 +7 1010.0 1005.2
05 15.11 Ю 20
{25}
н/о н/о +11.6 +11.1 97 +6 +6 1010.4 1005.6
06 15.11 Ю 18
{26}
н/о н/о +11.5 +11.4 99 +6 +6 1011.2 1006.4 +10.8 +12.5
07 15.11 Ю 21
{27}
н/о н/о +11.7 +11.6 99 +6 +6 1011.1 1006.3
08 15.11 Ю 23
{30}
н/о н/о +11.6 +11.5 99 +6 +6 1011.3 1006.5
09 15.11 Ю 18
{28}
н/о н/о +11.3 +11.2 99 +6 +6 1013.8 1009.0
10 15.11 Ю 18
{24}
н/о н/о +11.2 +11.1 99 +6 +6 1015.0 1010.2
11 15.11 Ю 18
{25}
н/о н/о +11.7 +11.2 97 +7 +7 1014.3 1009.5
12 15.11 Ю 18
{30}
н/о н/о +12.8 +9.6 81 +8 +8 1013.6 1008.8
13 15.11 Ю 19
{26}
н/о н/о +12.9 +8.2 73 +8 +8 1014.2 1009.4
14 15.11 Ю 18
{25}
н/о н/о +12.5 +9.2 80 +8 +8 1015.0 1010.2
15 15.11 Ю 18
{23}
н/о н/о +12.3 +9.1 81 +8 +8 1015.4 1010.6
16 15.11 Ю 17
{24}
н/о н/о +11.7 +9.4 86 +7 +7 1015.0 1010.2
17 15.11 Ю 21
{26}
н/о н/о +11.6 +7.9 78 +6 +6 1013.9 1009.1
18 15.11 Ю 20
{26}
н/о н/о +11.4 +7.3 76 +6 +6 1014.8 1010.0 +11.1 +13.0
19 15.11 Ю 19
{25}
н/о н/о +12.1 +5.7 65 +7 +7 1014.3 1009.5
20 15.11 Ю 22
{28}
н/о н/о +12.1 +5.3 63 +7 +7 1013.0 1008.2
21 15.11 Ю 21
{27}
н/о н/о +12.2 +4.4 59 +7 +7 1014.8 1010.0
22 15.11 Ю 18
{31}
н/о н/о +12.7 +4.7 58 +8 +8 1015.4 1010.6
23 15.11 Ю 20
{31}
н/о н/о +12.8 +5.3 60 +8 +8 1015.6 1010.8
00 16.11 Ю 23
{31}
н/о н/о +13.2 +5.9 61 +9 +9 1013.7 1008.9
01 16.11 Ю 21
{33}
н/о н/о +12.9 +6.9 67 +8 +8 1015.0 1010.2
02 16.11 Ю 21
{30}
н/о н/о +12.5 +8.0 74 +8 +8 1015.6 1010.8
03 16.11 Ю 25
{33}
н/о н/о +11.5 +8.7 83 +6 +6 1015.8 1011.0
04 16.11 Ю 21
{32}
н/о н/о +10.6 +10.1 97 +5 +5 1017.5 1012.7
05 16.11 Ю 23
{31}
н/о н/о +10.5 +10.4 99 +4 +4 1018.4 1013.5
06 16.11 Ю 21
{33}
н/о н/о +10.2 +10.1 99 +4 +4 1019.0 1014.1 +10.1 +13.5
07 16.11 Ю 23
{28}
н/о н/о +10.3 +10.2 99 +4 +4 1019.8 1014.9
08 16.11 Ю 23
{28}
н/о н/о +10.2 +10.1 99 +4 +4 1020.4 1015.5
09 16.11 Ю 22
{28}
н/о н/о +10.3 +10.2 99 +4 +4 1021.9 1017.0
10 16.11 Ю 22
{26}
н/о н/о +10.5 +10.4 99 +4 +4 1023.1 1018.2
11 16.11 Ю 20
{24}
н/о н/о +10.3 +10.2 99 +4 +4 1024.4 1019.5
12 16.11 Ю 19
{28}
н/о н/о +10.2 +10.1 99 +4 +4 1025.2 1020.3
13 16.11 Ю 20
{22}
н/о н/о +10.0 +9.9 99 +4 +4 1026.1 1021.2
14 16.11 Ю 18
{23}
н/о н/о +9.9 +9.8 99 +4 +4 1026.4 1021.5
15 16.11 Ю 17
{21}
н/о н/о +10.0 +9.9 99 +4 +4 1027.8 1022.9
16 16.11 Ю 13
{18}
н/о н/о +9.9 +9.8 99 +5 +5 1028.7 1023.8
17 16.11 Ю 14
{19}
н/о н/о +10.0 +9.9 99 +5 +5 1029.9 1025.0
18 16.11 Ю 13
{23}
н/о н/о +10.1 +10.0 99 +5 +5 1030.8 1025.9 +9.7 +10.5
19 16.11 Ю 11
{17}
н/о н/о +10.1 +10.0 99 +5 +5 1031.6 1026.7
20 16.11 Ю 11
{15}
н/о н/о +9.9 +9.8 99 +5 +5 1032.1 1027.2
21 16.11 Ю 13
{16}
н/о н/о +10.1 +10.0 99 +5 +5 1032.2 1027.3
22 16.11 Ю 11
{16}
н/о н/о +10.1 +10.0 99 +5 +5 1033.5 1028.6
23 16.11 Ю 10
{15}
н/о н/о +10.1 +10.0 99 +5 +5 1033.9 1029.0
00 17.11 Ю 11
{17}
н/о н/о +10.3 +10.2 99 +6 +6 1034.4 1029.5
01 17.11 Ю 10
{13}
н/о н/о +10.3 +10.2 99 +6 +6 1034.9 1030.0
02 17.11 Ю 11
{14}
н/о н/о +10.3 +10.0 98 +6 +6 1035.5 1030.6
03 17.11 Ю 12
{14}
н/о н/о +10.2 +10.1 99 +5 +5 1035.3 1030.4
04 17.11 Ю 11
{15}
н/о н/о +10.4 +9.3 93 +6 +6 1036.0 1031.1
05 17.11 Ю 3
{12}
н/о н/о +10.2 +10.1 99 +8 +8 1037.0 1032.1
06 17.11 ЮЗ 5
{15}
н/о н/о +10.0 +9.9 99 +7 +7 1037.6 1032.6 +9.8 +10.5
07 17.11 Ю 4
{7}
н/о н/о +10.0 +9.9 99 +7 +7 1038.0 1033.0
08 17.11 ЮЗ 3
{5}
н/о н/о +10.0 +9.9 99 +8 +8 1038.7 1033.7
09 17.11 ЮЗ 2
{3}
н/о н/о +10.1 +9.7 97 +8 +8 1039.2 1034.2
10 17.11 В 2
{3}
н/о н/о +10.0 +9.9 99 +8 +8 1039.4 1034.4
11 17.11 ЮЗ 6
{7}
н/о н/о +9.4 +9.3 99 +6 +6 1039.4 1034.4
12 17.11 ЮЗ 7
{8}
н/о н/о +9.1 +9.0 99 +5 +5 1039.5 1034.5
13 17.11 ЮЗ 5
{7}
н/о н/о +9.2 +9.1 99 +6 +6 1039.6 1034.6
14 17.11 ЮЗ 4
{6}
н/о н/о +9.3 +9.2 99 +6 +6 1039.7 1034.7
15 17.11 ЮЗ 3
{5}
н/о н/о +9.3 +9.2 99 +7 +7 1040.0 1035.0
16 17.11 З 2
{3}
н/о н/о +9.3 +9.2 99 +7 +7 1040.1 1035.1
17 17.11 С 2
{2}
н/о н/о +9.2 +9.1 99 +7 +7 1040.2 1035.2
18 17.11 С 1
{7}
н/о н/о +9.2 +9.1 99 +8 +8 1040.5 1035.5 +9.1 +10.2
19 17.11 З 1
{2}
н/о н/о +9.3 +9.2 99 +9 +9 1040.8 1035.8
20 17.11 З 1
{2}
н/о н/о +9.3 +9.2 99 +9 +9 1040.9 1035.9
21 17.11 С 1
{2}
н/о н/о +9.3 +9.2 99 +9 +9 1040.8 1035.8
22 17.11 ЮЗ 2
{3}
н/о н/о +9.2 +9.1 99 +7 +7 1040.7 1035.7
23 17.11 З 1
{2}
н/о н/о +9.2 +9.1 99 +8 +8 1040.6 1035.6
00 18.11 штиль 0
{3}
н/о н/о +9.2 +9.1 99 +8 +8 1040.6 1035.6
01 18.11 З 2
{2}
н/о н/о +9.0 +8.9 99 +7 +7 1040.7 1035.7
02 18.11 З 2
{3}
н/о н/о +8.8 +8.7 99 +7 +7 1040.6 1035.6
03 18.11 ЮЗ 3
{4}
н/о н/о +8.5 +8.4 99 +6 +6 1040.4 1035.4
04 18.11 З 1
{3}
н/о н/о +8.6 +8.5 99 +8 +8 1040.2 1035.2
05 18.11 З 1
{2}
н/о н/о +8.4 +8.3 99 +7 +7 1040.0 1035.0
06 18.11 СЗ 1
{4}
н/о н/о +8.5 +8.4 99 +8 +8 1040.0 1035.0 +8.3 +9.4
07 18.11 ЮЗ 2
{3}
н/о н/о +8.6 +8.5 99 +7 +7 1039.9 1034.9
08 18.11 Ю 4
{4}
н/о н/о +8.5 +8.4 99 +5 +5 1039.9 1034.9
09 18.11 Ю 4
{5}
н/о н/о +8.5 +8.4 99 +5 +5 1040.3 1035.3
10 18.11 ЮВ 1
{5}
н/о н/о +8.6 +8.5 99 +8 +8 1040.7 1035.7
11 18.11 Ю 4
{5}
н/о н/о +8.5 +8.4 99 +5 +5 1040.9 1035.9
12 18.11 Ю 4
{5}
н/о н/о +8.0 +7.9 99 +4 +4 1040.8 1035.8
13 18.11 Ю 3
{5}
н/о н/о +8.0 +7.9 99 +5 +5 1040.4 1035.4
14 18.11 Ю 3
{6}
н/о н/о +8.1 +7.2 94 +5 +5 1040.3 1035.3
15 18.11 Ю 2
{6}
н/о н/о +8.2 +6.3 88 +6 +6 1040.4 1035.4
16 18.11 ЮВ 2
{4}
н/о н/о +8.0 +6.0 87 +6 +6 1040.3 1035.3
17 18.11 Ю 2
{4}
н/о н/о +8.0 +6.8 92 +6 +6 1040.3 1035.3
18 18.11 Ю 2
{6}
н/о н/о +8.0 +6.6 91 +6 +6 1040.4 1035.4 +7.8 +8.7
19 18.11 Ю 3
{4}
н/о н/о +8.1 +5.9 86 +5 +5 1040.4 1035.4
20 18.11 Ю 2
{4}
н/о н/о +7.9 +6.4 90 +6 +6 1040.0 1035.0
21 18.11 ЮЗ 2
{5}
н/о н/о +8.1 +5.6 84 +6 +6 1039.6 1034.6
22 18.11 Ю 2
{4}
н/о н/о +7.9 +6.2 89 +6 +6 1039.6 1034.6
23 18.11 ЮВ 2
{3}
н/о н/о +7.6 +5.9 89 +5 +5 1039.3 1034.3
00 19.11 Ю 2
{5}
н/о н/о +7.7 +6.3 91 +6 +6 1039.0 1034.0
01 19.11 Ю 2
{3}
н/о н/о +7.5 +5.8 89 +5 +5 1038.8 1033.8
02 19.11 Ю 2
{4}
н/о н/о +7.6 +5.6 87 +5 +5 1038.4 1033.4
03 19.11 Ю 2
{4}
н/о н/о +7.6 +5.3 85 +6 +6 1038.3 1033.3
04 19.11 Ю 3
{5}
н/о н/о +7.4 +5.2 86 +4 +4 1038.0 1033.0
05 19.11 ЮВ 1
{4}
н/о н/о +7.3 +3.9 79 +6 +6 1037.9 1032.9
06 19.11 В 1
{5}
н/о н/о +7.5 +3.6 76 +7 +7 1037.9 1032.9 +7.1 +8.1
07 19.11 СЗ 1
{2}
н/о н/о +7.6 +4.2 79 +7 +7 1038.0 1033.0
08 19.11 В 2
{3}
н/о н/о +7.2 +5.2 87 +5 +5 1038.1 1033.1
09 19.11 В 2
{4}
н/о н/о +7.0 +4.8 86 +5 +5 1038.1 1033.1
10 19.11 В 2
{3}
н/о н/о +7.1 +4.6 84 +5 +5 1038.0 1033.0
11 19.11 В 2
{3}
н/о н/о +7.2 +5.0 86 +5 +5 1037.6 1032.6
12 19.11 В 2
{4}
н/о н/о +7.3 +4.4 82 +5 +5 1037.2 1032.2
13 19.11 В 3
{4}
н/о н/о +7.6 +3.7 76 +5 +5 1037.0 1032.0
14 19.11 В 3
{4}
н/о н/о +7.6 +3.3 74 +5 +5 1036.7 1031.7
15 19.11 В 4
{5}
н/о н/о +7.5 +3.4 75 +4 +4 1036.5 1031.5
16 19.11 В 5
{6}
н/о н/о +7.4 +4.7 83 +3 +3 1036.3 1031.3
17 19.11 В 5
{7}
н/о н/о +7.1 +4.8 85 +3 +3 1035.9 1030.9
18 19.11 В 6
{7}
н/о н/о +7.1 +4.8 85 +3 +3 1035.8 1030.8 +7.0 +7.7
19 19.11 В 5
{7}
н/о н/о +6.9 +4.9 87 +3 +3 1036.1 1031.1
20 19.11 В 6
{7}
н/о н/о +6.6 +4.1 84 +2 +2 1035.9 1030.9
21 19.11 В 7
{8}
н/о н/о +6.4 +4.2 86 +1 +1 1035.9 1030.9
22 19.11 В 6
{8}
н/о н/о +6.2 +3.7 84 +2 +2 1035.7 1030.7
23 19.11 В 6
{8}
н/о н/о +5.9 +4.7 92 +1 +1 1035.5 1030.5
00 20.11 В 6
{9}
н/о н/о +5.4 +4.7 95 0 0 1035.3 1030.3
01 20.11 В 6
{8}
н/о н/о +5.3 +4.0 91 0 0 1034.6 1029.6
02 20.11 В 6
{8}
н/о н/о +5.5 +3.7 88 +1 +1 1034.2 1029.2
03 20.11 В 6
{8}
н/о н/о +5.3 +3.6 89 0 0 1034.0 1029.0
04 20.11 В 7
{10}
н/о н/о +5.3 +3.6 89 -0 -0 1033.4 1028.4
05 20.11 В 6
{9}
н/о н/о +5.4 +2.9 84 0 0 1033.0 1028.0
06 20.11 В 5
{10}
н/о н/о +5.3 +2.5 82 +1 +1 1032.9 1027.9 +5.0 +7.1
07 20.11 В 8
{11}
н/о н/о +5.4 +3.3 86 -0 -0 1032.7 1027.7
08 20.11 В 7
{10}
н/о н/о +5.2 +3.5 89 -0 -0 1032.5 1027.5
09 20.11 В 10
{12}
н/о н/о +5.2 +3.2 87 -1 -1 1031.7 1026.7
10 20.11 В 8
{11}
н/о н/о +5.2 +2.7 84 -1 -1 1031.2 1026.2
11 20.11 В 5
{11}
н/о н/о +5.2 +2.1 80 +1 +1 1030.7 1025.7
12 20.11 В 6
{12}
н/о н/о +5.4 +1.0 73 +1 +1 1030.0 1025.0
13 20.11 В 4
{8}
н/о н/о +5.4 +0.4 70 +2 +2 1029.8 1024.8
14 20.11 В 5
{7}
н/о н/о +5.4 +0.6 71 +1 +1 1029.2 1024.2
15 20.11 В 6
{8}
н/о н/о +5.1 +0.9 74 0 0 1028.6 1023.6
16 20.11 В 5
{7}
н/о н/о +5.1 +1.2 76 +1 +1 1028.2 1023.2
17 20.11 В 5
{6}
н/о н/о +5.2 +1.0 74 +1 +1 1028.1 1023.1
18 20.11 В 4
{8}
н/о н/о +5.0 +0.6 73 +1 +1 1028.0 1023.0 +4.9 +5.6
19 20.11 ЮВ 3
{6}
н/о н/о +5.5 +1.1 73 +2 +2 1027.9 1022.9
20 20.11 В 1
{3}
н/о н/о +5.2 +1.3 76 +4 +4 1027.9 1022.9
21 20.11 ЮЗ 2
{2}
н/о н/о +5.2 +0.8 73 +3 +3 1028.1 1023.1
22 20.11
{2}
н/о н/о +5.1 +1.6 78 1028.1 1023.1

 

Местоположение метеостанции Krakenes Fyr (Норвегия): широта 62.03 долгота 4.99 высота над уровнем моря 75 м.

В архиве по умолчанию представлена погода в Krakenes Fyr за последнюю неделю. Архивные данные за месяц целиком и за предыдущие месяцы, начиная с января 2011 года, Вы можете получить, выбрав интересующий диапазон дат из раскрывающегося списка и нажав кнопку "Ввод!".


*Определитесь, кто Вы:
робот инопланетянин человек

Внимание! Время в таблицах - всемирное. Для получения местного времени необходимо прибавить поправку, которая в Krakenes Fyr равна 1 ч.

Смотрите также архив погоды в соседних городах и на ближайших метеорологических станциях:

Погода в Bergen Lufthavn (Норвегия) (31 км)
Погода в Fiskabygd (Норвегия) (32 км)
Погода в Svinoy Fyr (Норвегия) (36 км)
Погода в Floro Lifthavn (Норвегия) (50 км)
Погода в Ytteroyane Fyr (Норвегия) (54 км)
Погода в Orsta-Volda Lufthavn (Норвегия) (59 км)
Погода в Sandane Lufthavn (Норвегия) (62 км)
Погода в Forde Tefre (Норвегия) (79 км)
Погода в Alesund IV (Норвегия) (80 км)
Погода в Forde Lifthavn (Норвегия) (82 км)

Пояснения к столбцам:

Ветер - указаны скорость ветра в м/с - средняя за 10 мин, порывы в срок и между сроками (в фигурных скобках) и направление, откуда дует ветер: С - северный, СВ - северо-восточный, В - восточный, ЮВ - юго-восточный, Ю - южный, ЮЗ - юго-западный, З - западный, СЗ - северо-западный.
Видимость - горизонтальная дальность видимости в метрах или километрах. При видимости от 1 до 10 км при отсутствии осадков обычно наблюдается дымка, при ухудшении видимости до 1 км и менее - туман. В сухую погоду видимость может ухудшаться дымом, пылью или мглою.
Явления - указаны атмосферные явления, наблюдавшиеся в срок или в последний час перед сроком; фигурными скобками обозначены явления, наблюдавшиеся между сроками (за 1-3 часа до срока); квадратными скобками обозначены град или гололедные отложения с указанием их диаметра в мм.
Облачность - указаны через наклонную черту общая и нижняя облачность в баллах и высота нижней границы облаков в метрах; квадратными скобками обозначены формы облаков: Ci - перистые, Cs - перисто-слоистые, Cc - перисто-кучевые, Ac - высококучевые, As - высокослоистые, Sc - слоисто-кучевые, Ns - слоисто-дождевые, Cu - кучевые, Cb - кучево-дождевые. Подробнее классификацию облаков см. в Атласе облаков (PDF).
T - Температура воздуха - температура, измеренная на высоте 2 м над землей.
Td - Температура точки росы - температура, при понижении до которой содержащийся в воздухе водяной пар достигнет насыщения.
f - Относительная влажность воздуха - влажноcть воздуха, измеренная на высоте 2 м над землей.
Te - Эффективная температура - температура, которую ощущает одетый по сезону человек в тени. Характеристика душности погоды. При расчете учитывается влияние влажности воздуха и скорости ветра на теплоощущения человека.
Tes - Эффективная температура на солнце - температура, которую ощущает человек, с поправкой на солнечный нагрев. Характеристика знойности погоды. Зависит от высоты солнца над горизонтом, облачности и скорости ветра. Ночью, в пасмурную погоду, а также при ветре 12 м/с и более поправка равна нулю.
P - Атмосферное давление - приведенное к уровню моря атмосферное давление.
Po - Атмосферное давление - измеренное на уровне метеостанции атмосферное давление.
Tmin - Минимальная температура - минимум температуры воздуха на высоте 2 м над землей.
Tmax - Максимальная температура - максимум температуры воздуха на высоте 2 м над землей.
R - Количество осадков - Количество выпавших осадков за период времени, мм. При наведении курсора мыши на число - период времени, за который выпало указанное количество осадков.
R24 - Количество осадков - Количество выпавших осадков за 24 часа, мм.
S - Снежный покров - Высота снежного покрова, см. При наведении курсора мыши на число - состояние снежного покрова и степень покрытия местности в баллах.